Location: Bergnershof
(48.9468°N, 10.9431°E)
Time: 11:46:54
(UTC+00:00)

Resurs 01 Rocket - Pass Details

Date: 03 March 2021
Orbit: 635 x 643 km, 98.0° (Epoch: 13 April)

Event Time Altitude Azimuth Distance (km) Brightness Sun altitude
Exits shadow 20:50:14 19° 301° (WNW) 1,517 4.1 -36.1°
Drops below altitude 10° 20:52:06 10° 322° (NW) 2,034 4.9 -36.3°
Sets 20:54:40 0° 336° (NNW) 2,949 5.8 -36.7°
